Tracking 18785 objects as of 20-August-2017
HD Live streaming from Space Station
objects crossing your sky now

UFO 2 (USA 95)

Track UFO 2 (USA 95) now!
UFO 2 (USA 95) is classified as:


NORAD ID: 22787
Int'l Code: 1993-056A
Perigee: 35,772.1 km
Apogee: 35,816.4 km
Inclination: 10.7 °
Period: 1,436.1 minutes
Semi major axis: 42165 km
RCS: Unknown
Launch date: September 3, 1993
Source: United States (US)
Launch site: AIR FORCE EASTERN TEST RANGE (AFETR)
Your satellite tracking list
Your tracking list is empty





NASA's NSSDC Master Catalog

Two Line Element Set (TLE):
1 22787U 93056A   17060.54334804 0.00000000  00000-0  00000-0 0    07
2 22787  10.6925  24.0036 0005253 287.8236  72.2736  1.00270000    04
Source of the keplerian elements: McCants